Location: Chatham
(39.6760°N, 89.7040°W)
Time: 18:29:28
(UTC-06:00)

Tiangong 2 - Visible Passes

Search period start: 21 January 2018 00:00
Search period end: 31 January 2018 00:00
Orbit: 384 x 390 km, 42.8° (Epoch: 21 January)

Date Brightness Start Highest point End Pass type
(mag) Time Alt. Az. Time Alt. Az. Time Alt. Az.
21 Jan 1.3 06:01:26 30° WNW 06:02:43 56° N 06:05:53 10° ENE visible
22 Jan 3.2 05:05:33 27° ENE 05:05:33 27° ENE 05:07:09 10° ENE visible
22 Jan 1.7 06:37:53 10° WNW 06:40:58 45° N 06:44:04 10° ENE visible
23 Jan 1.5 05:41:53 45° NNW 05:42:09 47° N 05:45:15 10° ENE visible
24 Jan 4.2 04:45:53 14° ENE 04:45:53 14° ENE 04:46:29 10° ENE visible
24 Jan 1.6 06:18:09 17° WNW 06:20:24 49° N 06:23:30 10° E visible
25 Jan 2.1 05:22:08 39° NE 05:22:08 39° NE 05:24:39 10° ENE visible
26 Jan 1.3 05:58:22 29° WNW 05:59:45 63° NNE 06:02:55 10° E visible
27 Jan 3.2 05:02:20 27° ENE 05:02:20 27° ENE 05:04:03 10° E visible
27 Jan 1.4 06:34:38 10° WNW 06:37:47 55° SSW 06:40:54 10° SE visible
28 Jan 1.0 05:38:35 63° WNW 05:39:02 89° SSW 05:42:14 10° ESE visible
29 Jan 4.2 04:42:37 16° E 04:42:37 16° E 04:43:24 10° E visible
29 Jan 2.2 06:14:53 16° W 06:16:55 31° SSW 06:19:47 10° SE visible
30 Jan 2.1 05:18:58 41° SSE 05:18:58 41° SSE 05:21:21 10° SE visible
